Flag for Tajikistan Weather past 2 weeks in Dushanbe, Tajikistan

Now
75 °F

Passing clouds.


Feels Like: 77 °F
Forecast: 55 / 80 °F
Wind: 6 mph from West

Location: Dushanbe Airport

Current Time: Sep 19, 2014 at 6:50:53 PM

Latest Report: Sep 19, 2014 at 6:00 PM


Visibility: 4 mi

Pressure: 30.07 "Hg

Humidity: 36%

Dew point: 46 °F

Location of DushanbeLocation

Historic Weather in Dushanbe — Graph

°F

Dushanbe temperature yesterday

Maximum temperature yesterday: 93 °F (at 1:30 PM)
Minimum temperature yesterday: 61 °F (at 6:30 AM)
Average temperature yesterday: 76 °F

Past Weeks' High & Low Weather Summary

 TemperatureHumidityPressure
High97 °F (Sep 17, 2:30 PM)68% (Sep 19, 7:00 AM)30.15 "Hg (Sep 19, 7:00 AM)
Low57 °F (Sep 7, 6:30 AM)7% (Sep 17, 2:30 PM)29.65 "Hg (Sep 5, 3:00 PM)
Average74 °F31%29.88 "Hg
* Reported Sep 4 5:00 PM — Sep 19 5:30 PM, Dushanbe, Weather by CustomWeather, © 2014

Note: Actual official high and low records may vary slightly from our data, if they occured in-between our weather recording intervals... More about our weather records

Advertising

Dushanbe weather history for previous 24 hours

 ConditionsComfort  
Time TempWeatherWind HumidityBarometerVisibility
5:30 PM
Sep 19
81 °FPassing clouds.3 mph26%30.07 "Hg6 mi
5:00 PM81 °FPassing clouds.3 mph26%30.04 "HgN/A
4:30 PM82 °FPassing clouds.3 mph23%30.04 "HgN/A
4:00 PM82 °FPassing clouds.3 mph21%30.04 "HgN/A
3:30 PM82 °FSunny.6 mph25%30.07 "HgN/A
3:00 PM82 °FSunny.6 mph23%30.07 "HgN/A
2:30 PM82 °FSunny.6 mph25%30.07 "Hg5 mi
2:00 PM82 °FSunny.3 mph25%30.07 "Hg4 mi
1:30 PM82 °FFog.3 mph26%30.07 "Hg3 mi
1:00 PM82 °FFog.3 mph28%30.09 "Hg3 mi
12:30 PM81 °FFog.1 mph28%30.09 "Hg3 mi
12:00 PM81 °FFog.1 mph30%30.12 "Hg3 mi
11:30 AM79 °FFog.1 mph32%30.12 "Hg2 mi
11:00 AM77 °FFog.1 mph34%30.12 "Hg2 mi
10:30 AM77 °FFog.1 mph34%30.15 "Hg2 mi
10:00 AM73 °FFog.1 mph36%30.15 "Hg2 mi
9:30 AM72 °FFog.1 mph38%30.15 "Hg2 mi
9:00 AM70 °FFog.1 mph40%30.15 "Hg2 mi
8:30 AM68 °FFog.1 mph46%30.12 "Hg2 mi
8:00 AM66 °FHaze.1 mph49%30.12 "Hg2 mi
7:30 AM64 °FHaze.1 mph60%30.12 "Hg2 mi
7:00 AM63 °FHaze.1 mph68%30.12 "Hg2 mi
6:30 AM64 °FHaze.1 mph60%30.09 "Hg2 mi
6:00 AM64 °FHaze.1 mph60%30.09 "Hg2 mi
5:30 AM64 °FHaze.1 mph56%30.07 "Hg2 mi
5:00 AM68 °FHaze.3 mph43%30.07 "Hg2 mi
4:30 AM68 °FHaze.3 mph46%30.07 "Hg2 mi
4:00 AM66 °FHaze.3 mph52%30.07 "Hg2 mi
3:30 AM66 °FHaze.3 mph49%30.07 "Hg2 mi
3:00 AM68 °FHaze.3 mph49%30.07 "Hg2 mi
2:30 AM68 °FPassing clouds.1 mph49%30.04 "Hg2 mi
2:00 AM70 °FPassing clouds.No wind43%30.04 "Hg2 mi
1:30 AM70 °FPassing clouds.No wind43%30.04 "Hg2 mi
1:00 AM68 °FPassing clouds.3 mph49%30.04 "Hg2 mi
12:30 AM72 °FPassing clouds.1 mph38%30.04 "Hg2 mi
12:00 AM72 °FPassing clouds.1 mph41%30.04 "Hg3 mi
11:30 PM
Sep 18
70 °FPassing clouds.1 mph46%30.04 "Hg2 mi
11:00 PM72 °FPassing clouds.1 mph44%30.01 "Hg2 mi
10:30 PM72 °FPassing clouds.1 mph41%30.01 "Hg2 mi
10:00 PM72 °FPassing clouds.1 mph44%30.01 "Hg2 mi
9:30 PM72 °FPassing clouds.3 mph44%29.98 "Hg2 mi
9:00 PM75 °FPassing clouds.No wind34%29.98 "Hg2 mi
8:30 PM77 °FPassing clouds.1 mph32%29.98 "Hg2 mi
8:00 PM79 °FPassing clouds.1 mph32%29.95 "Hg2 mi
7:30 PM79 °FPassing clouds.1 mph30%29.95 "Hg2 mi
7:00 PM79 °FPassing clouds.No wind28%29.95 "Hg2 mi
6:30 PM81 °FHaze.3 mph28%29.92 "Hg2 mi
6:00 PM82 °FPassing clouds.3 mph25%29.92 "Hg4 mi
Weather by CustomWeather, © 2014

See weather overviewHow to use our weather pages